User: anonymous   Login
Location: Caltech
(34.1382°N, 118.1253°W)
Time: 21:14:48
(UTC-07:00)
Language:

Cosmos 1939 Rocket - Orbit

View from above orbital plane
View from above orbital plane
View from above satellite
View from above satellite

Ground track
Ground track

The orbit data is extracted from the following two-line orbital elements,

1 19046U 88032B   16121.50729534  .00000153  00000-0  16232-4 0  9994
2 19046  97.5804 172.8677 0036909 300.6510  59.1078 15.01840392510699
Epoch (UTC): 30 April 2016 12:10:30
Eccentricity: 0.0036909
inclination: 97.5804°
perigee height: 535 km
apogee height: 587 km
right ascension of ascending node: 172.8677°
argument of perigee: 300.6510°
revolutions per day: 15.01840392
mean anomaly at epoch: 59.1078°
orbit number at epoch: 51069

The dashed part of the orbit path shows where the satellite is in the earth's shadow,  

DLR